FLX weather

Fallon Municipal Airport
Fallon, Nevada, United States

Public forecast

Using degrees Fahrenheit for public forecast. Weather courtesy of forecast.io.

METAR (pilot weather report)

Closest report is Fallon Naval Air Station, 5.4 nm (10.1 km) SSE. Retrieved 2019/07/23 18:56 UTC (56 minutes ago):

KNFL 231856Z 00000KT 10SM SCT080 BKN120 BKN170 BKN220 31/08 A3015 RMK AO2 SLP174 T03060083

TAF (pilot weather forecast)

Forecast is more than 12 hours old.

Closest forecast is Fallon Naval Air Station, 5.4 nm (10.1 km) SSE. Retrieved 2016/12/07 15:00 UTC (3 years ago):

TAF KNFL 071500Z 0715/0815 VRB06KT 9999 FEW020 SCT070 SCT120 BKN200 620709 521809 522709 QNH3015INS FM071800 VRB06KT 9999 FEW020 SCT060 BKN150 OVC200 620609 521809 522709 QNH3000INS FM080000 VRB06KT 9999 VCSHSN SCT040 BKN100 OVC150 620409 621305 521809 522709 QNH2995INS TEMPO 0800/0806 8000 -SHSN BKN040 OVC100 FM080600 VRB06KT 9999 VCSHSN BKN050 OVC100 620109 621008 521809 522709 QNH2985INS TEMPO 0806/0812 4800 -SN SCT020 BKN030 OVC080